Terminal Aerodrome Forecast
Issued by NWS

Home | Current Version | Previous Version | Text Only | Print | Product List | Glossary On
Versions: 1 2 3 4 5 6 7 8 9 10 11 12 13 14 15 16 17 18 19 20 21 22 23 24 25 26 27 28 29 30 31 32 33 34 35
000
FTUS41 KOKX 281431 AAA
TAFTEB
TAF AMD
KTEB 281431Z 2815/2912 34008KT P6SM BKN050
     FM281600 34010G18KT P6SM VCSH OVC040
     FM290400 33012G18KT P6SM BKN050=

USA.gov is the U.S. government's official web portal to all federal, state and local government web resources and services.